Rochester, NY

10:17 PM EDT on October 14, 2019 (GMT -0400)
Greater Rochester International

Weather History for KROC - May, 2019

Change the Weather History Date:

Friday, May 31, 2019

  Actual Average Record
Temperature  
Mean Temperature 63 °F 62 °F  
Max Temperature 70 °F 72 °F 91 °F (1944)
Min Temperature 56 °F 51 °F 37 °F (1930)
Degree Days  
Heating Degree Days 2 5  
Month to date heating degree days 269 275  
Since 1 July heating degree days 6393 6578  
Cooling Degree Days 0 2  
Month to date cooling degree days 10 26  
Year to date cooling degree days 10 30  
Growing Degree Days 14 (Base 50)    
Moisture  
Dew Point 51 °F    
Average Humidity 67    
Maximum Humidity 93    
Minimum Humidity 40    
Precipitation  
Precipitation 0.00 in 0.10 in 1.64 in (1889)
Month to date precipitation 2.60 2.87  
Year to date precipitation 12.53 12.46  
Snow  
Snow 0.00 in 0.00 in 0.00 in ()
Month to date snowfall 0.0 0.4  
Since 1 July snowfall 97.1 99.5  
Snow Depth 0.00 in    
Sea Level Pressure  
Sea Level Pressure 29.81 in    
Wind  
Wind Speed 5 mph (North)    
Max Wind Speed 13 mph    
Max Gust Speed 16 mph    
Visibility 10 miles    
Events      
T = Trace of Precipitation, MM = Missing Value Source: NWS Daily Summary

Daily Weather History Graph

Daily Weather History Graph

Search for Another Location

Airport or City:

Astronomy

May. 31, 2019 Rise Set
Actual Time 5:34 AM EDT 8:42 PM EDT
Civil Twilight 5:00 AM EDT 9:17 PM EDT
Nautical Twilight 4:15 AM EDT 10:01 PM EDT
Astronomical Twilight 3:22 AM EDT 10:54 PM EDT
Moon 4:14 AM EDT (5/31) 5:44 PM EDT (5/31)
Length of Visible Light 16h 17m
Length of Day
15h 08m
Waning Crescent, 9% of the Moon is Illuminated
May 31
Waning Crescent
Jun 3
New
Jun 10
First Quarter
Jun 17
Full
Jun 25
Last Quarter

Hourly Weather History & Observations

Time (EDT) Temp. Dew Point Humidity Pressure Visibility Wind Dir Wind Speed Gust Speed Precip Events Conditions
12:54 AM 62.1 °F 57.9 °F 86% 29.71 in 8.0 mi West 9.2 mph - N/A   Partly Cloudy
1:54 AM 61.0 °F 55.9 °F 83% 29.73 in 10.0 mi West 9.2 mph - N/A   Partly Cloudy
2:54 AM 60.1 °F 55.0 °F 83% 29.73 in 10.0 mi West 5.8 mph - N/A   Mostly Cloudy
3:39 AM 60.1 °F 55.0 °F 83% 29.75 in 10.0 mi NW 4.6 mph - N/A   Overcast
3:54 AM 60.1 °F 55.0 °F 83% 29.75 in 10.0 mi NW 3.5 mph - N/A   Overcast
4:54 AM 60.1 °F 55.0 °F 83% 29.76 in 10.0 mi NW 4.6 mph - N/A   Mostly Cloudy
5:27 AM 59.0 °F 55.0 °F 87% 29.77 in 10.0 mi NNW 5.8 mph - N/A   Mostly Cloudy
5:54 AM 57.9 °F 55.0 °F 90% 29.78 in 8.0 mi NW 3.5 mph - N/A   Overcast
6:54 AM 59.0 °F 55.0 °F 87% 29.79 in 7.0 mi NNW 3.5 mph - N/A   Overcast
7:54 AM 59.0 °F 54.0 °F 83% 29.81 in 7.0 mi North 6.9 mph - N/A   Mostly Cloudy
8:38 AM 60.1 °F 50.0 °F 69% 29.81 in 10.0 mi Calm Calm - N/A   Mostly Cloudy
8:54 AM 61.0 °F 48.9 °F 64% 29.82 in 10.0 mi NNE 3.5 mph - N/A   Mostly Cloudy
9:07 AM 62.1 °F 51.1 °F 67% 29.81 in 10.0 mi NNE 5.8 mph - N/A   Mostly Cloudy
9:54 AM 62.1 °F 50.0 °F 65% 29.83 in 10.0 mi North 5.8 mph - N/A   Mostly Cloudy
10:54 AM 64.9 °F 52.0 °F 63% 29.84 in 10.0 mi Variable 4.6 mph - N/A   Mostly Cloudy
11:54 AM 64.0 °F 48.9 °F 58% 29.86 in 10.0 mi NE 10.4 mph - N/A   Scattered Clouds
12:54 PM 64.9 °F 48.9 °F 56% 29.86 in 10.0 mi NNE 9.2 mph - N/A   Scattered Clouds
1:54 PM 66.9 °F 48.9 °F 52% 29.85 in 10.0 mi NE 6.9 mph - N/A   Scattered Clouds
2:54 PM 68.0 °F 48.9 °F 50% 29.85 in 10.0 mi NE 9.2 mph - N/A   Scattered Clouds
3:54 PM 69.1 °F 48.9 °F 49% 29.84 in 10.0 mi Calm Calm - N/A   Scattered Clouds
4:54 PM 69.1 °F 46.9 °F 45% 29.83 in 10.0 mi NE 6.9 mph - N/A   Mostly Cloudy
5:54 PM 69.1 °F 45.0 °F 42% 29.84 in 10.0 mi NNE 9.2 mph - N/A   Mostly Cloudy
6:54 PM 64.9 °F 46.0 °F 50% 29.81 in 10.0 mi East 5.8 mph - N/A   Overcast
7:54 PM 64.9 °F 45.0 °F 48% 29.83 in 10.0 mi Calm Calm - N/A   Overcast
8:54 PM 61.0 °F 45.0 °F 56% 29.83 in 10.0 mi ESE 5.8 mph - N/A   Scattered Clouds
9:54 PM 60.1 °F 46.0 °F 60% 29.84 in 10.0 mi SE 3.5 mph - N/A   Scattered Clouds
10:54 PM 57.9 °F 46.0 °F 65% 29.85 in 10.0 mi Calm Calm - N/A   Clear
11:54 PM 57.9 °F 46.9 °F 67% 29.83 in 10.0 mi Calm Calm - N/A   Clear